Content
SEND FEEDBACK

Daily
Averages
Monthly
Summary
United States of America

JASPER, ALABAMA


Home > North America > United States > Alabama
Elevation: 487 feet     Latitude: 33 54N     Longitude: 087 16W

WEATHER
 
SELECT A DAY
Number of Records: 87,987;   Date Range: 2/7/11 - 10/29/14
 
SHARE

PRINT THIS DATA

[ ← Previous Day ]
WEATHER ALMANAC - JANUARY 31, 2013
[ Next Day → ]
[ °C ]   °F
Weather ElementAverageHighLow
Temperature41.5 °F55.4 °F (3:15 pm)32 °F (3:15 am)
Dewpoint29.8 °F32 °F (6:55 pm)26.6 °F (2:15 pm)
Humidity67 %93 % (3:15 am)33 % (3:15 pm)
Barometer30.15 in30.22 in (10:55 am)30.04 in (12:35 am)
Wind Speed5.4 mph12.7 mph (12:35 pm)
Wind Gust19.6 mph (3:35 pm)
Weather ElementAverage
Visibility10 mi
Wind DirectionSSW (186 °)

Weather ElementTotal
Precipitation---
Heating Degree Days21.3 (Base 65)
Averaged from 68 records on January 31, 2013
WEATHER CONDITIONS BREAKOUT
WIND DIRECTION BREAKOUT
WEATHER BY HOUR - JANUARY 31, 2013
[ °C ]   °F
Local TimeTemperatureDewpointHumidityBarometerVisibilityWind DirectionWind SpeedGust SpeedPrecipitationEventsConditions
12:35 AM37.4 °F30.2 °F75 %30.04 in10.0 miWNW (290°)8.1 mphPartly Cloudy
12:55 AM35.6 °F30.2 °F81 %30.05 in10.0 miWNW (300°)6.9 mphPartly Cloudy
1:15 AM35.6 °F30.2 °F81 %30.06 in10.0 miWNW (300°)8.1 mphClear
1:35 AM35.6 °F30.2 °F81 %30.06 in10.0 miWNW (290°)5.8 mphClear
1:55 AM33.8 °F30.2 °F87 %30.06 in10.0 miWest (270°)3.5 mphClear
2:15 AM33.8 °F30.2 °F87 %30.06 in10.0 miCalmClear
2:35 AM33.8 °F30.2 °F87 %30.06 in10.0 miCalmClear
2:55 AM33.8 °F30.2 °F87 %30.06 in10.0 miCalmClear
3:15 AM32.0 °F30.2 °F93 %30.07 in10.0 miCalmClear
3:35 AM32.0 °F30.2 °F93 %30.07 in10.0 miCalmClear
3:55 AM32.0 °F30.2 °F93 %30.08 in10.0 miCalmClear
4:15 AM32.0 °F30.2 °F93 %30.08 in10.0 miCalmClear
4:35 AM32.0 °F30.2 °F93 %30.09 in10.0 miSW (230°)4.6 mphClear
4:55 AM32.0 °F30.2 °F93 %30.10 in10.0 miWSW (250°)3.5 mphClear
5:15 AM32.0 °F30.2 °F93 %30.11 in10.0 miWSW (240°)3.5 mphPartly Cloudy
5:35 AM32.0 °F30.2 °F93 %30.11 in10.0 miWest (260°)4.6 mphClear
5:55 AM32.0 °F28.4 °F87 %30.12 in10.0 miWest (260°)4.6 mphClear
6:15 AM32.0 °F28.4 °F87 %30.12 in10.0 miCalmClear
6:55 AM32.0 °F28.4 °F87 %30.13 in10.0 miWest (270°)3.5 mphClear
7:15 AM32.0 °F28.4 °F87 %30.14 in10.0 miWest (270°)3.5 mphClear
7:35 AM32.0 °F30.2 °F93 %30.15 in10.0 miWest (280°)4.6 mphClear
8:15 AM35.6 °F30.2 °F81 %30.16 in10.0 miWNW (290°)8.1 mphClear
8:35 AM35.6 °F30.2 °F81 %30.17 in10.0 miWNW (290°)10.4 mph16.1 mphClear
8:55 AM37.4 °F30.2 °F75 %30.18 in10.0 miWNW (300°)10.4 mph18.4 mphClear
9:15 AM39.2 °F30.2 °F70 %30.19 in10.0 miWNW (290°)10.4 mph17.3 mphClear
9:35 AM41.0 °F30.2 °F65 %30.20 in10.0 miWest (280°)11.5 mph17.3 mphClear
9:55 AM42.8 °F30.2 °F61 %30.21 in10.0 miWest (280°)10.4 mphClear
10:15 AM42.8 °F30.2 °F61 %30.21 in10.0 miNW (310°)10.4 mphClear
10:35 AM44.6 °F30.2 °F57 %30.21 in10.0 miWNW (300°)11.5 mphClear
10:55 AM46.4 °F30.2 °F53 %30.22 in10.0 miWNW (290°)9.2 mphClear
11:15 AM46.4 °F30.2 °F53 %30.22 in10.0 miWest (280°)9.2 mphClear
11:35 AM48.2 °F30.2 °F50 %30.20 in10.0 miWNW (300°)8.1 mphClear
11:55 AM50.0 °F30.2 °F47 %30.20 in10.0 miWNW (290°)9.2 mphClear
12:15 PM51.8 °F30.2 °F44 %30.19 in10.0 miWNW (290°)11.5 mphClear
12:35 PM51.8 °F28.4 °F41 %30.18 in10.0 miWNW (290°)12.7 mph17.3 mphClear
12:55 PM53.6 °F28.4 °F38 %30.17 in10.0 miWNW (300°)9.2 mphClear
1:15 PM53.6 °F28.4 °F38 %30.17 in10.0 miWest (280°)11.5 mphClear
1:35 PM53.6 °F28.4 °F38 %30.17 in10.0 miWNW (300°)11.5 mphClear
1:55 PM53.6 °F28.4 °F38 %30.17 in10.0 miWest (270°)9.2 mphClear
2:15 PM53.6 °F26.6 °F35 %30.16 in10.0 miWSW (240°)8.1 mphClear
2:35 PM53.6 °F28.4 °F38 %30.16 in10.0 miWest (280°)8.1 mphClear
2:55 PM53.6 °F26.6 °F35 %30.16 in10.0 miWest (270°)10.4 mphClear
3:15 PM55.4 °F26.6 °F33 %30.16 in10.0 miWSW (240°)8.1 mphClear
3:35 PM53.6 °F26.6 °F35 %30.15 in10.0 miWest (270°)8.1 mph19.6 mphClear
3:55 PM53.6 °F26.6 °F35 %30.14 in10.0 miWSW (250°)6.9 mphClear
4:15 PM53.6 °F28.4 °F38 %30.15 in10.0 miWest (260°)10.4 mphClear
4:35 PM53.6 °F28.4 °F38 %30.14 in10.0 miWSW (250°)5.8 mphClear
4:55 PM51.8 °F28.4 °F41 %30.14 in10.0 miSW (230°)8.1 mphClear
5:15 PM50.0 °F28.4 °F43 %30.14 in10.0 miWSW (240°)5.8 mphClear
5:35 PM48.2 °F28.4 °F46 %30.14 in10.0 miCalmClear
5:55 PM46.4 °F30.2 °F53 %30.14 in10.0 miNorthClear
6:15 PM44.6 °F28.4 °F53 %30.15 in10.0 miNorthClear
6:35 PM42.8 °F30.2 °F61 %30.15 in10.0 miCalmRainLight Rain
6:55 PM41.0 °F32.0 °F70 %30.15 in10.0 miCalmRainLight Rain
7:15 PM37.4 °F32.0 °F81 %30.16 in10.0 miCalmRainLight Rain
7:35 PM37.4 °F32.0 °F81 %30.17 in10.0 miCalmRainLight Rain
7:55 PM35.6 °F32.0 °F87 %30.16 in10.0 miCalmRainLight Rain
8:15 PM35.6 °F32.0 °F87 %30.17 in10.0 miCalmRainLight Rain
8:35 PM35.6 °F32.0 °F87 %30.17 in10.0 miCalmRainLight Rain
8:55 PM35.6 °F32.0 °F87 %30.18 in10.0 miSW (220°)3.5 mphRainLight Rain
9:15 PM39.2 °F32.0 °F75 %30.19 in10.0 miSW (220°)3.5 mphRainLight Rain
9:35 PM41.0 °F30.2 °F65 %30.19 in10.0 miWSW (240°)4.6 mphClear
9:55 PM41.0 °F32.0 °F70 %30.19 in10.0 miWSW (240°)3.5 mphClear
10:15 PM39.2 °F32.0 °F75 %30.19 in10.0 miCalmClear
10:35 PM39.2 °F32.0 °F75 %30.19 in10.0 miCalmClear
10:55 PM41.0 °F30.2 °F65 %30.19 in10.0 miCalmClear
11:35 PM42.8 °F30.2 °F61 %30.19 in10.0 miSW (230°)3.5 mphClear
11:55 PM42.8 °F30.2 °F61 %30.18 in10.0 miSW (230°)5.8 mphClear
Hourly data recorded from KJFX, located miles away from Jasper, Alabama







STORIES FROM OUR PARTNERS